DELTA 1 DEB, 7043

Orbit data source: Space-Track

DELTA 1 DEB, 7043 is space debris in SSO originally from a launch on Tue, 06 Nov 1973 UTC launched from the Air Force Western Test Range (AFWTR). Debris objects in space refer to the collection of defunct objects orbiting the Earth. Examples of debris include non-operational satellites, rocket bodies, and fragments generated from explosions, collisions, or faulty payload assembly.

Loading next visibility...
Identifier
7043, 1973-086AK
Orbit
SSO
Country
Flag of USUS
Related business
Manufacturer
Unknown
Mission
Spacecraft
Bus & Motor
Unknown
Mass
Unknown
Launch date (UTC)
1973-11-06 (52 years ago)
Launch vehicle
Unknown
Launch site
Air Force Western Test Range (AFWTR)
Object type
Payload
Rocket body
Debris
Shape & HBR
Unknown shape, 0.2 m
Radar Cross Section
Small (<0.1 m²)

Expand to show TLE details & history
Last TLE update: 18 hours ago

TLE from 18 hours ago
0 DELTA 1 DEB
1 07043U 73086AK  25291.68843961  .00000092  00000-0  53203-3 0  9999
2 07043 102.1584 330.3978 0216472   4.3774 107.9858 12.85354738433551
Epoch: 2025-10-18T16:31Z
TLE epoch observation values (Epoch: 2025-10-18T16:31:21.182Z)
Latitude
62.72664°
Longitude
-100.28463°
Altitude
1,385.291 km
Speed
7.147 km/s
True Right ascension
11h 39m 52s
True Declination
62° 35' 52"
Sunlit
Object was in daylight at epoch
Visualization orbit readout
Latitude
Unknown
Longitude
Unknown
Altitude
Unknown
Speed
Unknown
Apparent Right ascension
Unknown
Apparent Declination
Unknown
Sunlit
N/A
Visualization observer readout
Local Sidereal Time
05:46:40
Azimuth
Unknown
Elevation
Unknown
Doppler factor
Unknown
Orbital elements
Apogee altitude
1,484.129 km
Perigee altitude
1,150.949 km
Semi-major axis
7,695.676 km
Eccentricity
0.02165
Inclination
102.1584°
RAAN
330.3978°
Arg. of periapsis
4.3774°
True anomaly
110.32496°
Mean anomaly
107.9858°
Eccentric anomaly
109.15741°
Mean motion
3.21494 °/min
Orbital period
111.98 mins
BSTAR
0.00053203
Loading maneuver chart data...
Computing Atmospheric mass density...
Loading historical data...
Loading historical data...
Loading historical data...
Loading historical data...
Loading historical data...
Loading historical data...
Loading historical data...

Documentation

Showing up to 5 results
|